Regional Weather Roundup
Issued by NWS Newport/Morehead, NC

Current Version | Previous Version | Graphics & Text | Print | Product List | Glossary On
Versions: 1 2 3 4 5 6 7 8 9 10 11 12 13 14 15 16 17 18 19 20 21 22 23 24 25 26 27 28 29 30 31 32 33 34 35 36 37 38 39 40 41 42 43 44 45 46 47 48 49 50
000
ASUS42 KMHX 030725
RWRMHX
WEATHER ROUNDUP FOR EASTERN NORTH CAROLINA
NATIONAL WEATHER SERVICE NEWPORT/MOREHEAD CITY NC
300 AM EDT MON AUG 03 2015

NOTE: "FAIR" INDICATES FEW OR NO CLOUDS BELOW 12,000 FEET
WITH NO SIGNIFICANT WEATHER AND/OR OBSTRUCTIONS TO VISIBILITY

NCZ015>017-031-032-045>047-102-103-030800-
NORTH COAST

CITY           SKY/WX    TMP DP  RH WIND       PRES   REMARKS
EDENTON        CLEAR     75  72  90 SW8       29.92F
ELIZABETH CITY PTCLDY    73  70  90 S7        29.91F
KITTY HAWK     PTSUNNY   78  73  83 SW8       29.92F
MANTEO         CLEAR     78  74  87 W9        29.93F

$$

NCZ045>047-081-094-103-104-030800-
CENTRAL COAST

CITY           SKY/WX    TMP DP  RH WIND       PRES   REMARKS
FRISCO         PTCLDY    78  73  84 W5        29.95S
SWANQUARTER      N/A     79 N/A N/A SW2       29.88F

$$

NCZ095-097-098-100-101-030800-
SOUTHERN COAST

CITY           SKY/WX    TMP DP  RH WIND       PRES   REMARKS
BEAUFORT       HVY RAIN  75  74  96 SW18G32   29.92F FOG
CEDAR ISLAND     N/A     77 N/A N/A S2        29.97S
JACKSONVILLE   LGT RAIN  76  73  91 SW6       29.92F
PINEY ISLAND   CLOUDY   N/A N/A N/A CALM      29.92F
WILMINGTON     LGT RAIN  75  74  96 S6        29.92F


$$

NCZ011>013-027>030-043-044-078>080-089-090>093-098-030800-
COASTAL PLAIN

CITY           SKY/WX    TMP DP  RH WIND       PRES   REMARKS
AHOSKIE        CLEAR     67  66  94 CALM      29.91F
CLINTON        PTCLDY    73  73  99 CALM      29.93F
ELIZABETHTOWN  CLOUDY    75  74  97 CALM      29.92F
GOLDSBORO      PTCLDY    73  72  94 E1        29.90F
GREENVILLE     CLEAR     73  73 100 CALM      29.93F
HAVELOCK       MOCLDY    74  72  93 CALM      29.93F
KENANSVILLE    CLOUDY    71  69  95 CALM      29.93F
KINSTON        MOCLDY    73  72  96 CALM      29.93F
NEW BERN       MOCLDY    74  71  91 CALM      29.93F
RICHLANDS      PTCLDY    73  66  78 S6        29.93S
ROCKY MOUNT    CLEAR     73  70  90 CALM      29.91F
WASHINGTON     CLEAR     72  71  96 CALM      29.93F
WHITEVILLE     MOCLDY    75  73  92 CALM      29.92S

$$

AMZ130-135-150-152-154-156-158-170-250-252-270-ANZ085-086-088-633-658-670-030800-
MARINE OBSERVATIONS

STATION/POSITION TIME  TEMP    WIND        PRES    WAVE   SWELL
                       AIR SEA DIR/SP/G            HT/PER HT/PER
                 (UTC) (F)     (DEG/KT/KT) (MB)    (FT/S) (FT/S)
CHESAPEAKE LIGHT 0700   79     240/  5/  6 1013.1
64 E VA BEACH    0650   81 81  210/ 16/ 17 1012.4    3/11   2/11
DUCK             0700   80 73  210/ 11/ 13 1012.2
2 E DUCK         0611      79                N/A     2/11   2/11
OREGON INLET     0700   80 86  250/  8/ 11 1013.4
13E OREGON INLT  0700      81                N/A     3/11   2/11
HATTERAS CG      0700   78 83  230/  5/  6 1013.5
DIAMOND BUOY     0650   76 84  210/ 12/ 16 1014.4    4/ 4   2/11
CAPE LOOKOUT     0700   76     240/ 14/ 19 1012.9
BEAUFORT LAB     0700   77 83  230/  9/ 22 1012.6
30 SE NEW RVR IN NOT AVBL
27 SE WRIGHTSVLE 0700   77 82  240/ 17/ 23   N/A
5 SE WRIGHTSVLE  0608   76 83  210/ 23/ 29 1013.4
225 S CAPE HAT   0650   82 81  200/ 16/ 19 1015.7    5/ 6   2/11
41 SE CHARLESTON 0650   83 83  190/ 17/ 21 1011.5    6/ 7   2/11

$$



USA.gov is the U.S. government's official web portal to all federal, state and local government web resources and services.